Latest Weather Observations for Cerberus

IDV60801

Issued at 12:35 pm EDT Saturday 1 November 2014 (issued every 30 minutes, with the page automatically refreshed every 10 minutes)

About weather observations | Map of weather stations | Latest weather observations for VIC | Other Formats
Station Details ID: 086361 Name: CERBERUS Lat: -38.36 Lon: 145.18 Height: 12.69 m
Data from the previous 72 hours. | See also: Recent months at Cerberus
Date/Time
EDT
Temp
°C
App
Temp
°C
Dew
Point
Rel
Hum
%
Delta-T
°C
Wind Press
QNH
hPa
Press
MSL
hPa
Rain
since 9 am
mm
Dir
 
Spd
km/h
Gust
km/h
Spd
kts
Gust
kts
01/12:30pm 14.6 8.6 7.2 61 3.6 W 28 43 15 23 1005.4 1005.4 0.0
01/12:15pm 13.9 7.4 6.7 62 3.5 W 30 48 16 26 1005.3 1005.3 0.0
01/12:00pm 14.7 10.8 9.5 71 2.7 W 20 32 11 17 1005.1 1005.1 0.0
01/11:30am 12.1 6.0 8.2 77 1.9 WSW 30 44 16 24 1005.0 1005.0 0.0
01/11:01am 15.1 9.1 7.2 59 3.9 W 28 46 15 25 1004.3 1004.3 0.0
01/11:00am 15.0 9.3 6.8 58 4.0 W 26 46 14 25 1004.3 1004.3 0.0
01/10:30am 14.5 10.4 8.5 67 3.0 W 20 30 11 16 1004.2 1004.2 0.0
01/10:00am 13.3 9.6 9.4 77 2.0 WSW 19 30 10 16 1003.9 1003.9 0.0
01/09:30am 13.1 9.5 10.5 84 1.4 WSW 20 30 11 16 1003.4 1003.4 0.0
01/09:00am 11.4 6.4 9.5 88 1.0 WSW 26 43 14 23 1003.0 1003.0 10.4
01/08:30am 12.1 7.0 10.7 91 0.7 WSW 28 43 15 23 1002.5 1002.5 10.4
01/08:00am 12.4 8.9 10.8 90 0.8 WSW 20 32 11 17 1001.8 1001.8 10.0
01/07:30am 13.4 11.2 12.0 91 0.8 W 15 26 8 14 1000.9 1000.9 9.4
01/07:00am 13.4 10.4 12.0 91 0.8 WNW 19 28 10 15 1000.4 1000.4 9.4
01/06:30am 13.4 10.2 11.8 90 0.9 WNW 20 30 11 16 1000.1 1000.1 8.0
01/06:00am 13.5 9.5 11.7 89 1.0 WNW 24 33 13 18 999.8 999.8 5.6
01/05:30am 14.0 12.1 11.7 86 1.2 WNW 13 28 7 15 999.2 999.2 2.2
01/05:00am 14.7 14.1 12.2 85 1.4 W 7 13 4 7 998.7 998.7 1.0
01/04:30am 14.8 14.6 11.8 82 1.6 NNW 4 7 2 4 999.3 999.3 0.0
01/04:00am 14.9 14.2 11.3 79 1.9 NNW 6 9 3 5 998.6 998.6 0.0
01/03:30am 15.0 14.3 10.2 73 2.5 NW 4 7 2 4 998.5 998.5 0.0
01/03:00am 16.2 14.6 10.1 67 3.2 WNW 9 19 5 10 999.8 999.8 0.0
01/02:30am 16.3 13.0 9.7 65 3.4 SW 17 28 9 15 999.7 999.7 0.0
01/02:00am 15.5 14.1 12.1 80 1.9 WSW 11 22 6 12 999.5 999.5 0.0
01/01:30am 15.6 12.7 12.4 81 1.8 SW 19 28 10 15 999.1 999.1 0.0
01/01:04am 16.1 11.6 12.7 80 1.9 SW 28 48 15 26 998.9 998.9 0.0
01/01:00am 16.1 12.4 12.8 81 1.8 SW 24 44 13 24 999.0 999.0 0.0
01/12:30am 16.2 13.7 12.4 78 2.1 SW 17 26 9 14 997.7 997.7 0.0
01/12:00am 17.1 13.5 11.8 71 2.9 SW 22 41 12 22 998.1 998.1 0.0
 
Date/Time
EDT
Temp
°C
App
Temp
°C
Dew
Point
Rel
Hum
%
Delta-T
°C
Wind Press
QNH
hPa
Press
MSL
hPa
Rain
since 9 am
mm
Dir
 
Spd
km/h
Gust
km/h
Spd
kts
Gust
kts
31/11:30pm 17.6 12.7 11.2 66 3.5 SW 28 46 15 25 997.8 997.8 0.0
31/11:00pm 19.9 13.3 8.6 48 5.9 SW 33 63 18 34 997.6 997.6 0.0
31/10:53pm 20.3 14.4 7.7 44 6.5 SSW 28 56 15 30 996.8 996.8 0.0
31/10:30pm 24.6 22.1 6.4 31 9.4 N 9 13 5 7 995.7 995.7 0.0
31/10:00pm 21.2 20.3 10.7 51 5.8 NNE 6 7 3 4 996.1 996.1 0.0
31/09:30pm 21.4 20.5 10.6 50 5.9 N 6 7 3 4 996.5 996.5 0.0
31/09:00pm 22.3 21.1 9.5 44 6.9 NNE 6 9 3 5 996.8 996.8 0.0
31/08:30pm 22.8 21.2 8.1 39 7.7 N 6 9 3 5 997.1 997.1 0.0
31/08:00pm 24.6 22.7 6.8 32 9.3 N 6 7 3 4 997.3 997.3 0.0
31/07:30pm 26.1 24.1 6.2 28 10.3 N 6 9 3 5 997.8 997.8 0.0
31/07:00pm 27.0 24.9 5.9 26 11.0 N 6 9 3 5 998.3 998.3 0.0
31/06:30pm 28.3 25.5 5.2 23 11.9 N 9 17 5 9 998.8 998.8 0.0
31/06:00pm 29.9 26.6 4.5 20 13.2 NNW 11 22 6 12 999.3 999.3 0.0
31/05:30pm 30.5 26.4 4.3 19 13.5 NNW 15 32 8 17 999.7 999.7 0.0
31/05:00pm 30.5 26.7 5.7 21 13.2 NNW 15 24 8 13 1000.0 1000.0 0.0
31/04:30pm 30.5 25.5 3.5 18 13.7 N 19 43 10 23 1000.3 1000.3 0.0
31/04:00pm 29.9 25.2 5.2 21 13.0 N 19 33 10 18 1000.7 1000.7 0.0
31/03:30pm 29.3 24.5 4.7 21 12.7 N 19 33 10 18 1001.4 1001.4 0.0
31/03:00pm 28.8 22.5 3.6 20 12.8 NNW 26 44 14 24 1001.8 1001.8 0.0
31/02:30pm 27.1 22.5 3.6 22 11.7 N 17 33 9 18 1002.6 1002.6 0.0
31/02:00pm 26.4 21.5 4.2 24 11.2 N 19 33 10 18 1003.1 1003.1 0.0
31/01:30pm 25.9 22.2 6.5 29 10.1 N 15 28 8 15 1003.8 1003.8 0.0
31/01:00pm 25.1 22.5 9.4 37 8.6 N 13 20 7 11 1004.4 1004.4 0.0
31/12:30pm 23.4 21.0 10.1 43 7.3 NNE 13 22 7 12 1005.0 1005.0 0.0
31/12:00pm 21.9 20.5 12.2 54 5.5 N 11 28 6 15 1005.9 1005.9 0.0
31/11:30am 19.3 18.9 13.0 67 3.6 NE 7 15 4 8 1007.0 1007.0 0.0
31/11:00am 17.8 16.8 12.3 70 3.1 NE 9 15 5 8 1007.6 1007.6 0.0
31/10:30am 16.8 15.8 12.3 75 2.5 NE 9 17 5 9 1008.0 1008.0 0.0
31/10:00am 14.6 12.9 11.2 80 1.8 NNE 11 17 6 9 1008.6 1008.6 0.0
31/09:30am 13.7 12.7 10.9 83 1.5 NE 7 11 4 6 1008.9 1008.9 0.0
31/09:00am 13.1 12.0 10.8 86 1.2 NNE 7 15 4 8 1009.3 1009.3 0.0
31/08:30am 13.0 11.4 11.4 90 0.8 NE 11 19 6 10 1009.7 1009.7 0.0
31/08:00am 12.0 11.5 10.7 92 0.7 NE 4 9 2 5 1009.9 1009.9 0.0
31/07:30am 10.3 9.4 9.2 93 0.5 S 4 4 2 2 1010.4 1010.4 0.0
31/07:00am 8.3 7.7 7.2 93 0.5 CALM 0 0 0 0 1010.5 1010.5 0.0
31/06:30am 6.3 4.8 5.1 92 0.5 S 2 4 1 2 1010.6 1010.6 0.0
31/06:00am 6.5 5.1 5.3 92 0.5 S 2 4 1 2 1010.6 1010.6 0.0
31/05:30am 5.5 3.5 4.2 91 0.6 S 4 6 2 3 1010.5 1010.5 0.0
31/05:00am 6.3 5.2 5.1 92 0.5 CALM 0 0 0 0 1010.6 1010.6 0.0
31/04:30am 6.4 4.5 5.0 91 0.6 S 4 6 2 3 1010.6 1010.6 0.0
31/04:00am 6.3 4.8 4.9 91 0.6 S 2 4 1 2 1011.1 1011.1 0.0
31/03:30am 6.5 4.6 5.1 91 0.6 S 4 6 2 3 1011.4 1011.4 0.0
31/03:00am 6.6 5.5 5.2 91 0.6 CALM 0 0 0 0 1011.6 1011.6 0.0
31/02:30am 6.7 5.6 5.3 91 0.6 CALM 0 4 0 2 1011.9 1011.9 0.0
31/02:00am 7.5 6.6 6.0 90 0.7 CALM 0 0 0 0 1012.5 1012.5 0.0
31/01:30am 7.5 6.6 6.0 90 0.7 CALM 0 0 0 0 1013.3 1013.3 0.0
31/01:00am 8.0 7.2 6.5 90 0.7 CALM 0 0 0 0 1013.7 1013.6 0.0
31/12:30am 8.1 6.9 6.4 89 0.8 S 2 4 1 2 1013.8 1013.7 0.0
31/12:00am 8.7 8.0 7.0 89 0.8 CALM 0 0 0 0 1014.0 1013.9 0.0
 
Date/Time
EDT
Temp
°C
App
Temp
°C
Dew
Point
Rel
Hum
%
Delta-T
°C
Wind Press
QNH
hPa
Press
MSL
hPa
Rain
since 9 am
mm
Dir
 
Spd
km/h
Gust
km/h
Spd
kts
Gust
kts
30/11:30pm 9.0 7.9 7.1 88 0.9 S 2 4 1 2 1014.1 1014.0 0.0
30/11:00pm 9.7 9.1 7.6 87 1.0 CALM 0 0 0 0 1014.2 1014.1 0.0
30/10:30pm 10.1 9.6 7.9 86 1.1 CALM 0 0 0 0 1014.2 1014.1 0.0
30/10:00pm 10.9 10.5 8.3 84 1.3 CALM 0 0 0 0 1014.2 1014.1 0.0
30/09:30pm 11.6 10.2 8.8 83 1.4 S 6 6 3 3 1014.1 1014.0 0.0
30/09:00pm 12.2 11.3 9.2 82 1.5 S 4 6 2 3 1013.8 1013.7 0.0
30/08:30pm 12.6 11.3 9.2 80 1.7 S 6 7 3 4 1013.7 1013.6 0.0
30/08:00pm 13.2 11.8 9.6 79 1.8 S 7 11 4 6 1013.7 1013.6 0.0
30/07:30pm 14.1 12.4 9.9 76 2.2 S 9 15 5 8 1013.4 1013.4 0.0
30/07:00pm 14.7 12.3 9.9 73 2.5 S 13 22 7 12 1013.3 1013.3 0.0
30/06:30pm 15.3 13.0 10.3 72 2.6 SSW 13 22 7 12 1013.3 1013.3 0.0
30/06:00pm 15.5 12.2 9.4 67 3.1 SSW 17 26 9 14 1013.2 1013.2 0.0
30/05:30pm 16.0 12.5 8.7 62 3.7 SSW 17 28 9 15 1013.1 1013.1 0.0
30/05:00pm 16.6 13.1 8.8 60 4.0 SSW 17 26 9 14 1013.1 1013.1 0.0
30/04:30pm 16.6 13.2 9.1 61 3.9 SSW 17 26 9 14 1013.2 1013.2 0.0
30/04:00pm 17.1 13.6 8.8 58 4.3 SSW 17 24 9 13 1013.3 1013.3 0.0
30/03:30pm 17.0 13.5 8.9 59 4.2 S 17 26 9 14 1013.3 1013.3 0.0
30/03:00pm 17.2 13.8 9.1 59 4.2 SSW 17 22 9 12 1013.6 1013.5 0.0
30/02:30pm 17.4 14.4 9.1 58 4.3 SSW 15 24 8 13 1013.7 1013.6 0.0
30/02:00pm 17.6 15.0 7.6 52 5.0 S 11 17 6 9 1013.9 1013.8 0.0
30/01:30pm 16.8 14.5 7.4 54 4.7 WSW 9 15 5 8 1014.1 1014.0 0.0
30/01:00pm 17.1 13.7 7.5 53 4.8 WNW 15 24 8 13 1014.6 1014.5 0.0
30/12:30pm 16.2 12.8 7.7 57 4.3 W 15 22 8 12 1015.0 1014.9 0.0
30/12:00pm 16.5 13.0 7.4 55 4.5 WNW 15 30 8 16 1014.8 1014.7 0.0
30/11:30am 17.3 13.8 8.7 57 4.4 WNW 17 24 9 13 1015.0 1014.9 0.0
30/11:00am 15.8 12.6 8.5 62 3.7 WNW 15 20 8 11 1015.2 1015.1 0.0
30/10:30am 15.4 12.3 8.9 65 3.3 W 15 24 8 13 1015.6 1015.5 0.0
30/10:00am 15.8 12.7 9.0 64 3.5 WNW 15 28 8 15 1015.5 1015.4 0.0
30/09:30am 14.8 11.7 9.0 68 3.0 WNW 15 22 8 12 1015.5 1015.4 0.0
30/09:00am 14.4 11.2 10.0 75 2.3 WNW 17 24 9 13 1015.4 1015.3 0.0
30/08:30am 14.1 11.7 10.1 77 2.1 WNW 13 24 7 13 1015.4 1015.3 0.0
30/08:00am 14.2 11.8 10.2 77 2.1 WNW 13 24 7 13 1014.8 1014.7 0.0
30/07:30am 13.6 12.1 10.4 81 1.7 WNW 9 15 5 8 1014.9 1014.8 0.0
30/07:00am 13.0 12.0 10.4 84 1.3 NNW 6 9 3 5 1014.5 1014.4 0.0
30/06:30am 12.8 11.2 10.2 84 1.3 NNW 9 15 5 8 1014.0 1013.9 0.0
30/06:00am 12.2 11.1 9.8 85 1.2 NNW 6 7 3 4 1013.9 1013.8 0.0
30/05:30am 12.9 12.0 10.8 87 1.1 NNW 6 9 3 5 1014.2 1014.1 0.0
30/05:00am 12.8 12.3 10.9 88 1.0 N 4 7 2 4 1014.3 1014.2 0.0
30/04:30am 12.6 12.1 10.8 89 0.9 N 4 6 2 3 1014.2 1014.1 0.0
30/04:00am 12.5 12.0 10.7 89 0.9 N 4 6 2 3 1014.1 1014.0 0.0
30/03:30am 12.6 11.7 10.8 89 0.9 N 6 7 3 4 1014.1 1014.0 0.0
30/03:00am 12.7 12.2 10.9 89 0.9 N 4 7 2 4 1014.5 1014.4 0.0
30/02:30am 12.7 11.9 11.1 90 0.8 N 6 7 3 4 1014.6 1014.5 0.0
30/02:00am 12.5 12.4 10.9 90 0.8 N 2 4 1 2 1015.0 1014.9 0.0
30/01:30am 12.2 11.7 10.6 90 0.8 N 4 7 2 4 1015.3 1015.2 0.0
30/01:00am 11.8 11.1 10.2 90 0.8 N 4 7 2 4 1015.9 1015.8 0.0
30/12:30am 11.4 10.3 10.0 91 0.7 N 6 9 3 5 1016.0 1015.9 0.0
30/12:00am 10.6 9.2 9.0 90 0.8 N 6 6 3 3 1016.1 1016.0 0.0
 
Date/Time
EDT
Temp
°C
App
Temp
°C
Dew
Point
Rel
Hum
%
Delta-T
°C
Wind Press
QNH
hPa
Press
MSL
hPa
Rain
since 9 am
mm
Dir
 
Spd
km/h
Gust
km/h
Spd
kts
Gust
kts
29/11:30pm 10.6 9.2 8.9 89 0.8 N 6 7 3 4 1016.1 1016.0 0.0
29/11:00pm 10.9 9.5 9.0 88 0.9 NW 6 9 3 5 1016.1 1016.0 0.0
29/10:30pm 10.9 9.5 8.7 86 1.1 SSW 6 6 3 3 1016.2 1016.1 0.0
29/10:00pm 11.6 10.6 9.0 84 1.3 SSW 4 6 2 3 1016.3 1016.2 0.0
29/09:30pm 13.2 12.1 10.7 85 1.3 SSW 7 15 4 8 1016.3 1016.2 0.0
29/09:00pm 12.9 11.7 10.4 85 1.3 SSW 7 11 4 6 1016.1 1016.0 0.0
29/08:30pm 12.9 11.8 10.1 83 1.4 SSW 6 9 3 5 1015.8 1015.7 0.0
29/08:00pm 13.4 12.2 10.2 81 1.7 S 7 11 4 6 1015.7 1015.6 0.0
29/07:30pm 13.9 12.2 9.9 77 2.1 S 9 15 5 8 1015.6 1015.5 0.0
29/07:00pm 14.5 12.0 9.7 73 2.5 S 13 22 7 12 1015.3 1015.2 0.0
29/06:30pm 15.5 11.9 9.8 69 3.0 SSW 19 26 10 14 1015.0 1014.9 0.0
29/06:00pm 16.3 12.5 9.0 62 3.8 SW 19 32 10 17 1014.9 1014.8 0.0
29/05:30pm 17.4 15.0 10.1 62 3.9 SSW 13 20 7 11 1014.9 1014.8 0.0
29/05:00pm 16.7 13.7 9.1 61 3.9 S 15 22 8 12 1014.9 1014.8 0.0
29/04:30pm 17.1 14.5 9.5 61 4.0 S 13 20 7 11 1014.8 1014.7 0.0
29/04:00pm 18.6 14.9 8.0 50 5.4 W 17 22 9 12 1015.0 1014.9 0.0
29/03:30pm 18.8 16.1 9.0 53 5.1 W 13 20 7 11 1015.4 1015.3 0.0
29/03:00pm 18.3 15.6 8.8 54 4.9 W 13 24 7 13 1015.9 1015.8 0.0
29/02:30pm 17.3 14.0 7.9 54 4.8 NW 15 24 8 13 1016.3 1016.2 0.0
29/02:00pm 17.0 14.4 9.2 60 4.0 WNW 13 24 7 13 1016.7 1016.7 0.0
29/01:30pm 15.7 12.4 8.2 61 3.8 NW 15 22 8 12 1017.1 1017.1 0.0
29/01:00pm 14.6 12.1 8.3 66 3.2 WNW 11 19 6 10 1017.4 1017.4 0.0

Other Formats:

Comma delimited format used in spreadsheet applications
http://www.bom.gov.au/fwo/IDV60801/IDV60801.94898.axf

JavaScript Object Notation format (JSON) in row-major order
http://www.bom.gov.au/fwo/IDV60801/IDV60801.94898.json